[[{"header":{"parameterUnit":"m.s-1","parameterCategory":1,"la1":30.2991,"la2":30.254,"lo1":-89.0895,"lo2":-89.0444,"dy":0.0017,"dx":0.0017,"nx":28,"ny":28,"refTime":"2024-08-24T21:00:00:Z","depth":0,"parameterNumber":2,"parameterNumberName":"U-component_of_WINDS"},"data":[0,0,0,0,0,0,0,0,0,0,0,0,0,0,0,0,0,0,0,0,0,0,0,0,0,0,0,0,0,0,0,0,0,0,0,0,0,0,0,0,0,0,0,0,0,0,0,0,0,0,0,0,0,0,0,0,0,0,-4.9407,-4.9408,0,-4.9483,-4.9484,-4.9485,-4.9405,-4.9402,-4.9399,-4.9396,-4.9475,-4.948,-4.9485,0,0,0,0,0,0,0,0,0,0,0,0,0,-4.9196,-4.92,-4.9407,-4.9408,-4.9409,-4.9483,-4.9484,-4.9485,-4.9405,-4.9402,-4.9398,-4.9394,-4.9473,-4.9479,-4.9485,0,0,0,0,0,0,0,0,0,0,0,0,0,-4.9281,-4.9201,-4.9407,-4.9378,-4.9376,-4.9483,-4.9484,-4.9485,-4.9406,-4.9401,-4.9397,-4.9392,-4.9471,-4.9479,-4.9486,-4.9625,0,0,-4.9509,-4.9512,0,0,0,0,0,0,0,0,-4.9276,-4.9289,-4.9382,-4.9381,-4.9379,-4.943,-4.9438,-4.9532,-4.9407,-4.9395,-4.9396,-4.939,-4.9464,-4.9471,-4.9496,-4.9628,-4.9632,-4.9509,-4.9514,-4.9517,-4.9519,0,0,0,0,0,0,0,-4.9271,-4.9285,-4.9437,-4.9383,-4.9381,-4.9362,-4.9369,-4.9456,-4.9454,-4.9396,-4.939,-4.94,-4.9462,-4.9489,-4.9497,-4.9633,-4.9509,-4.9516,-4.952,-4.9523,-4.9885,-4.989,0,0,0,0,0,0,-4.9268,-4.9281,-4.9435,-4.944,-4.9315,-4.937,-4.9378,-4.9418,-4.9453,-4.9454,-4.9404,-4.9396,-4.9478,-4.9489,-4.95,-4.9666,-4.9517,-4.9524,-4.9528,-4.988,-4.9886,-4.9892,0,0,0,0,0,0,-4.9263,-4.9282,-4.9432,-4.9359,-4.9376,-4.9378,-4.9424,-4.9422,-4.9449,-4.9459,-4.9459,-4.9432,-4.9475,-4.9489,-4.9594,-4.9668,-4.9527,-4.9534,-4.9874,-4.9882,-4.9889,-4.9999,0,0,0,0,0,0,-4.9258,-4.9281,-4.9334,-4.9361,-4.9381,-4.9525,-4.9429,-4.9427,-4.9462,-4.9452,-4.9485,-4.9486,-4.9473,-4.9584,-4.9602,-4.9675,-4.954,-4.9867,-4.9877,-4.9886,-4.9989,-5.0009,-5.0027,0,0,0,0,0,-4.925,-4.9362,-4.9337,-4.9356,-4.9446,-4.953,-4.9541,-4.9523,-4.9468,-4.9521,-4.9528,-4.9485,-4.9656,-4.9595,-4.9615,-4.9692,-4.9863,-4.9875,-4.9886,-4.998,-5.0005,-5.0027,0,0,0,0,0,0,-4.9344,-4.9365,-4.9337,-4.946,-4.9494,-4.9516,-4.9582,-4.9549,-4.96,-4.9589,-4.9564,-4.9572,-4.9684,-4.9698,-4.963,-4.9829,-4.9751,-4.9767,-4.9816,-4.984,-4.9859,-4.9854,-4.9546,0,0,0,0,0,-4.9378,-4.9444,-4.9459,-4.9566,-4.9584,-4.9581,-4.9616,-4.9599,-4.9633,-4.9647,-4.9661,-4.9697,-4.9758,-4.9799,-4.9856,-4.999,-4.9997,-5.0052,-5.0072,-5.0087,-5.0102,-5.0175,-5.0201,-4.9929,-4.9929,-4.9929,0,0,-4.9451,-4.9471,-4.9514,-4.9585,-4.9609,-4.9679,-4.9593,-4.967,-4.9721,-4.9659,-4.9759,-4.9771,-4.9809,-4.9929,-4.9983,-4.9944,-5.0178,-5.0102,-5.0114,-5.0121,-5.019,-5.0215,-5.0238,-4.9937,-4.9936,-4.9935,0,0,-4.9619,-4.964,-4.9732,-4.9758,-4.9795,-4.9792,-4.9814,-4.9842,-4.9847,-4.9948,-4.9903,-4.9964,-5.007,-5.0099,-5.0128,-5.0308,-5.0271,-5.0327,-5.0428,-5.0499,-5.0521,-5.054,-5.0606,-5.0629,-5.0341,-5.0342,-5.0342,0,-4.9705,-4.9807,-4.9784,-4.9864,-4.9898,-4.9844,-4.9938,-4.9964,-5.0018,-5.0043,-4.9998,-5.0132,-5.0153,-5.028,-5.0324,-5.0349,-5.0374,-5.0324,-5.0519,-5.0538,-5.0555,-5.0618,-5.0643,-5.0348,-5.0348,-5.0347,-5.0346,0,-4.9912,-4.9984,-5.0054,-5.0108,-5.0149,-5.0235,-5.0226,-5.0271,-5.025,-5.0252,-5.0356,-5.0379,-5.0441,-5.0469,-5.045,-5.0595,-5.057,-5.0523,-5.0444,-5.0588,-5.0647,-5.0671,-5.0358,-5.0355,-5.0353,-5.0352,0,0,-5.0142,-5.0182,-5.0208,-5.0233,-5.027,-5.0325,-5.041,-5.0469,-5.0509,-5.0548,-5.062,-5.0711,-5.0668,-5.0701,-5.0684,-5.0747,-5.089,-5.0692,-5.0693,-5.073,-5.1053,-5.109,-5.1118,-5.0865,-5.087,-5.0873,-5.1051,0,-5.0313,-5.0459,-5.0441,-5.0582,-5.0649,-5.0598,-5.0672,-5.0703,-5.0707,-5.0765,-5.0769,-5.0836,-5.0773,-5.0793,-5.0852,-5.086,-5.0955,-5.0847,-5.0933,-5.0937,-5.0927,-5.1148,-5.1187,-5.1353,-5.1073,-5.1077,-5.108,0,-5.0532,-5.0579,-5.0726,-5.0754,-5.0781,-5.0848,-5.0902,-5.0957,-5.0992,-5.0991,-5.1028,-5.1,-5.1086,-5.1005,-5.1124,-5.1051,-5.1085,-5.1094,-5.11,-5.1109,-5.1018,-5.1165,-5.1406,-5.1432,-5.1115,-5.1113,-5.111,0,-5.0687,-5.0787,-5.0889,-5.0911,-5.0945,-5.0994,-5.1011,-5.1041,-5.1078,-5.1125,-5.115,-5.1207,-5.1239,-5.1284,-5.1272,-5.1214,-5.1395,-5.1312,-5.1398,-5.1399,-5.144,-5.1438,-5.1692,-5.1459,-5.1458,-5.1458,-5.1457,0,-5.0881,-5.0974,-5.0959,-5.1022,-5.1125,-5.1103,-5.1205,-5.1216,-5.1243,-5.1308,-5.1267,-5.1329,-5.1309,-5.137,-5.1362,-5.1463,-5.1477,-5.148,-5.1477,-5.1485,-5.1485,-5.1508,-5.1497,-5.1465,-5.1463,-5.1462,-5.1461,0,-5.1073,-5.1067,-5.1174,-5.1198,-5.1206,-5.1281,-5.1302,-5.1361,-5.1362,-5.1444,-5.1462,-5.1464,-5.1534,-5.1526,-5.1605,-5.1599,-5.1725,-5.1707,-5.1714,-5.171,-5.1797,-5.179,-5.2077,-5.2114,-5.1855,-5.1858,-5.186,0,-5.1198,-5.1268,-5.1299,-5.1339,-5.1359,-5.1424,-5.1463,-5.1444,-5.1485,-5.153,-5.1585,-5.1651,-5.1703,-5.1817,-5.1826,-5.1886,-5.1871,-5.1967,-5.1879,-5.1886,-5.1875,-5.1871,-5.1879,-5.1985,-5.1988,-5.199,-5.1992,0,-5.1421,-5.1414,-5.147,-5.1527,-5.1573,-5.1616,-5.1655,-5.1691,-5.1676,-5.1725,-5.1795,-5.1836,-5.1915,-5.1982,-5.2039,-5.2057,-5.2024,-5.2019,-5.2042,-5.2052,-5.2054,-5.2056,-5.1763,-5.2013,-5.2011,-5.2009,-5.2008,-5.2007,-5.1584,-5.1645,-5.1677,-5.1741,-5.1768,-5.1806,-5.1863,-5.1871,-5.193,-5.1993,-5.1978,-5.2058,-5.2092,-5.2165,-5.2189,-5.2252,-5.2217,-5.2251,-5.226,-5.2269,-5.228,-5.2042,-5.2262,-5.2262,-5.2261,-5.226,-5.226,0,-5.1807,-5.1825,-5.1884,-5.194,-5.1991,-5.1953,-5.1995,-5.204,-5.2111,-5.2145,-5.2197,-5.2279,-5.2344,-5.2358,-5.242,-5.2468,-5.2454,-5.2485,-5.2482,-5.2488,-5.2306,-5.2281,-5.2495,-5.2495,-5.2495,-5.2495,-5.2495,-5.2495,-5.1929,-5.203,-5.2028,-5.2142,-5.2159,-5.2238,-5.2265,-5.23,-5.2327,-5.242,-5.2473,-5.2481,-5.2508,-5.2572,-5.263,-5.2632,-5.2658,-5.2696,-5.2693,-5.2523,-5.25,-5.2478,-5.2454,-5.2701,-5.2701,-5.2868,-5.287,-5.2871]},{"header":{"parameterUnit":"m.s-1","parameterCategory":1,"la1":30.2991,"la2":30.254,"lo1":-89.0895,"lo2":-89.0444,"dy":0.0017,"dx":0.0017,"nx":28,"ny":28,"refTime":"2024-08-24T21:00:00:Z","depth":0,"parameterNumber":3,"parameterNumberName":"V-component_of_WINDS"},"data":[0,0,0,0,0,0,0,0,0,0,0,0,0,0,0,0,0,0,0,0,0,0,0,0,0,0,0,0,0,0,0,0,0,0,0,0,0,0,0,0,0,0,0,0,0,0,0,0,0,0,0,0,0,0,0,0,0,0,-2.5774,-2.5774,0,-2.5758,-2.5758,-2.5758,-2.5714,-2.5713,-2.5712,-2.5711,-2.5695,-2.5695,-2.5696,0,0,0,0,0,0,0,0,0,0,0,0,0,-2.5768,-2.5769,-2.5774,-2.5774,-2.5774,-2.5758,-2.5758,-2.5758,-2.5714,-2.5713,-2.5711,-2.571,-2.5695,-2.5695,-2.5696,0,0,0,0,0,0,0,0,0,0,0,0,0,-2.5763,-2.5769,-2.5774,-2.575,-2.5748,-2.5758,-2.5758,-2.5758,-2.5714,-2.5713,-2.5711,-2.571,-2.5695,-2.5695,-2.5696,-2.5729,0,0,-2.5698,-2.5699,0,0,0,0,0,0,0,0,-2.5764,-2.5764,-2.5754,-2.5752,-2.5749,-2.5736,-2.575,-2.5748,-2.5714,-2.5727,-2.5711,-2.5709,-2.571,-2.5709,-2.5709,-2.5728,-2.5728,-2.5698,-2.5699,-2.5699,-2.5699,0,0,0,0,0,0,0,-2.5764,-2.5764,-2.5768,-2.5754,-2.5751,-2.574,-2.5738,-2.5749,-2.5727,-2.5726,-2.5722,-2.5721,-2.5708,-2.5709,-2.5709,-2.5727,-2.5698,-2.5699,-2.5699,-2.57,-2.5772,-2.5773,0,0,0,0,0,0,-2.5768,-2.5765,-2.5768,-2.5767,-2.5753,-2.5742,-2.5739,-2.5742,-2.5726,-2.5723,-2.5722,-2.5719,-2.5708,-2.5708,-2.5708,-2.5745,-2.5699,-2.57,-2.57,-2.577,-2.5772,-2.5774,0,0,0,0,0,0,-2.5768,-2.5769,-2.5769,-2.5765,-2.5764,-2.5743,-2.5747,-2.5742,-2.5743,-2.5724,-2.572,-2.5727,-2.5707,-2.5707,-2.5724,-2.5744,-2.57,-2.5701,-2.5769,-2.5771,-2.5773,-2.582,0,0,0,0,0,0,-2.5768,-2.5769,-2.5781,-2.5766,-2.5765,-2.5785,-2.5748,-2.5743,-2.5744,-2.574,-2.5727,-2.5724,-2.5706,-2.5723,-2.5725,-2.5744,-2.5701,-2.5767,-2.577,-2.5772,-2.5817,-2.5824,-2.583,0,0,0,0,0,-2.5768,-2.5795,-2.5782,-2.5782,-2.5779,-2.5786,-2.5786,-2.5765,-2.5746,-2.5758,-2.5746,-2.5724,-2.5742,-2.5725,-2.5727,-2.5747,-2.5765,-2.5769,-2.5772,-2.5814,-2.5822,-2.583,0,0,0,0,0,0,-2.5814,-2.5793,-2.5778,-2.5801,-2.5796,-2.5779,-2.5794,-2.5775,-2.5775,-2.5771,-2.5745,-2.5743,-2.5763,-2.5757,-2.5739,-2.5777,-2.575,-2.5754,-2.5781,-2.5789,-2.5796,-2.5797,-2.5702,0,0,0,0,0,-2.5827,-2.5834,-2.5815,-2.5837,-2.5835,-2.5815,-2.5817,-2.5802,-2.5795,-2.5793,-2.5782,-2.5777,-2.5781,-2.5785,-2.5788,-2.5815,-2.5812,-2.583,-2.5836,-2.5842,-2.5845,-2.5859,-2.5867,-2.5785,-2.5785,-2.5785,0,0,-2.5853,-2.5843,-2.5849,-2.5846,-2.584,-2.5849,-2.5814,-2.5824,-2.583,-2.5795,-2.581,-2.5802,-2.5794,-2.5817,-2.5826,-2.5812,-2.5867,-2.5846,-2.5851,-2.5851,-2.5864,-2.5871,-2.5878,-2.5787,-2.5787,-2.5786,0,0,-2.5906,-2.5898,-2.5916,-2.5911,-2.5902,-2.5888,-2.5893,-2.5879,-2.5872,-2.5886,-2.586,-2.5867,-2.5875,-2.5871,-2.587,-2.5921,-2.5901,-2.5922,-2.5956,-2.597,-2.5977,-2.5982,-2.6,-2.6007,-2.5926,-2.5926,-2.5926,0,-2.594,-2.5951,-2.5928,-2.5939,-2.5939,-2.5907,-2.5925,-2.5921,-2.5914,-2.5915,-2.5899,-2.5908,-2.5901,-2.5922,-2.5934,-2.5934,-2.5939,-2.5924,-2.5978,-2.5983,-2.5988,-2.6005,-2.6012,-2.5929,-2.5929,-2.5928,-2.5928,0,-2.5993,-2.6001,-2.6016,-2.601,-2.6011,-2.6026,-2.6005,-2.601,-2.5994,-2.5982,-2.5997,-2.5988,-2.5988,-2.5992,-2.5977,-2.601,-2.6002,-2.5982,-2.5954,-2.5999,-2.6014,-2.602,-2.5933,-2.5932,-2.5931,-2.593,0,0,-2.6074,-2.6055,-2.6061,-2.6057,-2.6045,-2.6051,-2.6064,-2.6064,-2.6068,-2.6065,-2.6075,-2.6083,-2.6064,-2.6063,-2.6047,-2.606,-2.61,-2.6038,-2.6038,-2.605,-2.6137,-2.6151,-2.6159,-2.6087,-2.6088,-2.6089,-2.6137,0,-2.6124,-2.6145,-2.6124,-2.615,-2.6157,-2.6127,-2.6138,-2.6132,-2.6121,-2.6126,-2.6114,-2.612,-2.6095,-2.6094,-2.6105,-2.6093,-2.6117,-2.6089,-2.6096,-2.6097,-2.6099,-2.6167,-2.6183,-2.6229,-2.6143,-2.6144,-2.6145,0,-2.6184,-2.6183,-2.6209,-2.6195,-2.6197,-2.6208,-2.6206,-2.621,-2.6203,-2.6194,-2.6193,-2.6174,-2.6186,-2.6158,-2.6175,-2.6156,-2.6158,-2.6153,-2.6154,-2.6154,-2.6124,-2.6169,-2.6243,-2.625,-2.6154,-2.6153,-2.6153,0,-2.624,-2.6245,-2.6261,-2.6259,-2.6243,-2.6251,-2.6245,-2.6237,-2.6238,-2.6236,-2.6237,-2.6237,-2.6237,-2.6238,-2.6219,-2.6201,-2.6238,-2.6209,-2.6231,-2.6232,-2.624,-2.624,-2.6316,-2.6242,-2.6242,-2.6242,-2.6242,0,-2.6297,-2.6314,-2.6286,-2.6296,-2.6314,-2.629,-2.6309,-2.63,-2.6292,-2.63,-2.6274,-2.6282,-2.6257,-2.6262,-2.6248,-2.6264,-2.6264,-2.6257,-2.6253,-2.6259,-2.626,-2.626,-2.6256,-2.6244,-2.6243,-2.6243,-2.6242,0,-2.6363,-2.6345,-2.636,-2.6344,-2.634,-2.6354,-2.634,-2.6349,-2.6336,-2.6347,-2.6348,-2.6328,-2.6333,-2.6314,-2.6316,-2.6306,-2.633,-2.632,-2.6332,-2.6329,-2.6352,-2.635,-2.643,-2.6439,-2.636,-2.6361,-2.6362,0,-2.6401,-2.6413,-2.6398,-2.6401,-2.6396,-2.6402,-2.6402,-2.638,-2.6382,-2.6374,-2.6384,-2.6387,-2.6387,-2.6397,-2.6383,-2.6384,-2.6374,-2.6402,-2.6374,-2.638,-2.6374,-2.6374,-2.6375,-2.6408,-2.6409,-2.641,-2.6411,0,-2.6469,-2.6459,-2.6462,-2.6461,-2.6462,-2.6461,-2.6457,-2.6461,-2.6437,-2.644,-2.6445,-2.6445,-2.6447,-2.645,-2.6448,-2.6442,-2.6423,-2.6419,-2.6425,-2.6431,-2.6437,-2.6434,-2.6348,-2.6418,-2.6417,-2.6416,-2.6416,-2.6416,-2.6522,-2.6531,-2.6522,-2.6525,-2.652,-2.6517,-2.6524,-2.6513,-2.6516,-2.6515,-2.6501,-2.6508,-2.6501,-2.6496,-2.6492,-2.6498,-2.6485,-2.6492,-2.6494,-2.6496,-2.65,-2.6437,-2.6497,-2.6497,-2.6497,-2.6497,-2.6497,0,-2.6589,-2.6581,-2.6584,-2.658,-2.6583,-2.6563,-2.6558,-2.6562,-2.6568,-2.6563,-2.6564,-2.6569,-2.6572,-2.6558,-2.6559,-2.6566,-2.6557,-2.6567,-2.6566,-2.6565,-2.6512,-2.6507,-2.6574,-2.6574,-2.6574,-2.6574,-2.6574,-2.6574,-2.6624,-2.6638,-2.6628,-2.664,-2.6632,-2.6638,-2.6637,-2.6635,-2.663,-2.6637,-2.6638,-2.6629,-2.6621,-2.6621,-2.6622,-2.6618,-2.662,-2.6633,-2.6626,-2.6576,-2.6569,-2.6561,-2.6557,-2.6633,-2.6633,-2.6678,-2.6679,-2.6679]}]]